Location: Austin
(30.3000°N, 97.7500°W)
Time: 00:46:07
(UTC-05:00)

CZ-4B R/B - Pass Details

Date: 15 May 2024
Orbit: 807 x 882 km, 99.0° (Epoch: 19 May)

Event Time Altitude Azimuth Distance (km) Brightness Sun altitude
Exits shadow 21:29:56 - 170° (S) 2,592 5.3 -14.5°
Reaches altitude 10° 21:30:17 10° 170° (S) 2,456 5.2 -14.5°
Maximum altitude 21:35:44 79° 257° (WSW) 850 3.3 -15.5°
Drops below altitude 10° 21:41:06 10° 344° (NNW) 2,422 6.3 -16.5°
Sets 21:43:26 0° 346° (NNW) 3,349 7.1 -16.9°
